| time (UTC) | temp F | wind direction | speed MPH | gust MPH | rain 1hr in | rain 24hr in | rain mn in | humidity % | barometer mb |
| 20260508015544 | 56 | 267 | 3.0 | 8.0 | 0.00 | 0.05 | 0.05 | 30 | 1017.3 |
| 20260508015044 | 57 | 263 | 3.0 | 8.0 | 0.00 | 0.05 | 0.05 | 29 | 1017.2 |
| 20260508014555 | 57 | 261 | 4.0 | 9.0 | 0.00 | 0.05 | 0.05 | 28 | 1017.2 |
| 20260508014044 | 57 | 225 | 5.0 | 9.0 | 0.00 | 0.05 | 0.05 | 28 | 1017.2 |
| 20260508013544 | 57 | 250 | 3.0 | 7.0 | 0.00 | 0.05 | 0.05 | 29 | 1017.2 |
| 20260508013052 | 58 | 255 | 3.0 | 8.0 | 0.00 | 0.05 | 0.05 | 28 | 1017.1 |
| 20260508012544 | 58 | 236 | 1.0 | 9.0 | 0.00 | 0.05 | 0.05 | 28 | 1017.1 |
| 20260508012045 | 58 | 235 | 3.0 | 9.0 | 0.00 | 0.05 | 0.05 | 27 | 1017.0 |
| 20260508011552 | 58 | 290 | 3.0 | 8.0 | 0.00 | 0.05 | 0.05 | 28 | 1017.1 |
| 20260508011046 | 58 | 228 | 1.0 | 8.0 | 0.00 | 0.05 | 0.05 | 32 | 1017.0 |
| 20260508010543 | 59 | 176 | 1.0 | 8.0 | 0.00 | 0.05 | 0.05 | 28 | 1017.0 |
| 20260508010054 | 59 | 318 | 2.0 | 5.0 | 0.00 | 0.05 | 0.05 | 28 | 1017.0 |
| 20260508005544 | 59 | 327 | 0.0 | 3.0 | 0.00 | 0.05 | 0.05 | 32 | 1017.0 |
| 20260508005049 | 59 | 209 | 0.0 | 3.0 | 0.00 | 0.05 | 0.05 | 31 | 1017.0 |
| 20260508004555 | 59 | 0 | 0.0 | 3.0 | 0.00 | 0.05 | 0.05 | 30 | 1016.9 |
| 20260508004044 | 59 | 0 | 0.0 | 3.0 | 0.00 | 0.05 | 0.05 | 32 | 1016.8 |
| 20260508003546 | 59 | 218 | 2.0 | 3.0 | 0.00 | 0.05 | 0.05 | 31 | 1016.8 |
| 20260508003052 | 59 | 202 | 0.0 | 5.0 | 0.00 | 0.05 | 0.05 | 27 | 1016.8 |
| 20260508002544 | 59 | 0 | 1.0 | 5.0 | 0.00 | 0.05 | 0.05 | 26 | 1016.8 |
| 20260508002047 | 59 | 231 | 2.0 | 4.0 | 0.00 | 0.05 | 0.05 | 28 | 1016.8 |
| 20260508001551 | 60 | 244 | 2.0 | 6.0 | 0.00 | 0.05 | 0.05 | 25 | 1016.8 |
| 20260508001044 | 60 | 244 | 3.0 | 10.0 | 0.00 | 0.05 | 0.05 | 25 | 1016.8 |
| 20260508000544 | 61 | 188 | 3.0 | 10.0 | 0.00 | 0.05 | 0.05 | 24 | 1016.8 |
| 20260508000053 | 62 | 237 | 1.0 | 10.0 | 0.00 | 0.05 | 0.05 | 24 | 1016.8 |
| 20260507235544 | 62 | 0 | 2.0 | 10.0 | 0.00 | 0.06 | 0.05 | 25 | 1016.8 |
| 20260507235047 | 62 | 0 | 3.0 | 10.0 | 0.00 | 0.06 | 0.05 | 24 | 1016.7 |
| 20260507234551 | 61 | 327 | 5.0 | 11.0 | 0.00 | 0.06 | 0.05 | 25 | 1016.8 |
| 20260507234048 | 61 | 0 | 2.0 | 11.0 | 0.00 | 0.06 | 0.05 | 26 | 1016.8 |
| 20260507233551 | 61 | 199 | 4.0 | 14.0 | 0.00 | 0.06 | 0.05 | 24 | 1016.8 |
| 20260507233056 | 61 | 278 | 5.0 | 14.0 | 0.00 | 0.06 | 0.05 | 24 | 1016.8 |
| 20260507232548 | 61 | 295 | 2.0 | 15.0 | 0.00 | 0.06 | 0.05 | 24 | 1017.0 |
| 20260507232047 | 61 | 306 | 2.0 | 15.0 | 0.00 | 0.06 | 0.05 | 24 | 1016.8 |
| 20260507231555 | 61 | 296 | 7.0 | 15.0 | 0.00 | 0.06 | 0.05 | 24 | 1017.0 |
| 20260507231048 | 62 | 325 | 4.0 | 12.0 | 0.00 | 0.06 | 0.05 | 23 | 1016.9 |
| 20260507230550 | 62 | 328 | 2.0 | 13.0 | 0.00 | 0.06 | 0.05 | 25 | 1016.8 |
| 20260507230053 | 62 | 33 | 5.0 | 13.0 | 0.00 | 0.06 | 0.05 | 23 | 1016.8 |
| 20260507225546 | 62 | 342 | 5.0 | 12.0 | 0.00 | 0.07 | 0.05 | 23 | 1017.0 |
| 20260507225045 | 62 | 292 | 0.0 | 12.0 | 0.00 | 0.07 | 0.05 | 22 | 1016.8 |
| 20260507224558 | 63 | 217 | 6.0 | 17.0 | 0.00 | 0.07 | 0.05 | 22 | 1016.8 |
| 20260507224049 | 63 | 321 | 2.0 | 17.0 | 0.00 | 0.07 | 0.05 | 25 | 1016.8 |
| 20260507223547 | 62 | 201 | 8.0 | 17.0 | 0.00 | 0.07 | 0.05 | 24 | 1016.9 |
| 20260507223052 | 61 | 245 | 7.0 | 15.0 | 0.00 | 0.07 | 0.05 | 26 | 1016.9 |
| 20260507222551 | 61 | 34 | 7.0 | 15.0 | 0.00 | 0.07 | 0.05 | 25 | 1017.0 |
| 20260507222048 | 61 | 352 | 6.0 | 12.0 | 0.00 | 0.07 | 0.05 | 24 | 1016.8 |
| 20260507221551 | 61 | 352 | 1.0 | 16.0 | 0.00 | 0.07 | 0.05 | 25 | 1016.9 |
| 20260507221048 | 61 | 332 | 3.0 | 19.0 | 0.00 | 0.07 | 0.05 | 24 | 1017.2 |
| 20260507220547 | 61 | 342 | 9.0 | 19.0 | 0.00 | 0.07 | 0.05 | 24 | 1017.0 |
| 20260507220056 | 62 | 75 | 10.0 | 18.0 | 0.00 | 0.07 | 0.05 | 24 | 1017.1 |
| 20260507215548 | 62 | 5 | 8.0 | 18.0 | 0.00 | 0.07 | 0.05 | 24 | 1017.2 |
| 20260507215048 | 62 | 22 | 4.0 | 26.0 | 0.00 | 0.07 | 0.05 | 24 | 1017.1 |
| 20260507214603 | 61 | 0 | 3.0 | 26.0 | 0.00 | 0.07 | 0.05 | 24 | 1017.4 |
| 20260507214050 | 62 | 331 | 4.0 | 20.0 | 0.00 | 0.07 | 0.05 | 25 | 1017.3 |
| 20260507213548 | 61 | 352 | 10.0 | 20.0 | 0.00 | 0.07 | 0.05 | 25 | 1017.3 |
| 20260507213057 | 61 | 238 | 8.0 | 16.0 | 0.00 | 0.07 | 0.05 | 24 | 1017.4 |
| 20260507212548 | 61 | 199 | 7.0 | 22.0 | 0.00 | 0.07 | 0.05 | 25 | 1017.3 |
| 20260507212050 | 61 | 266 | 4.0 | 28.0 | 0.00 | 0.07 | 0.05 | 26 | 1017.5 |
| 20260507211556 | 61 | 349 | 12.0 | 28.0 | 0.00 | 0.07 | 0.05 | 24 | 1017.6 |
| 20260507211048 | 61 | 310 | 7.0 | 17.0 | 0.00 | 0.07 | 0.05 | 27 | 1017.6 |
| 20260507210548 | 60 | 296 | 6.0 | 17.0 | 0.00 | 0.07 | 0.05 | 27 | 1017.4 |
| 20260507210058 | 61 | 283 | 4.0 | 11.0 | 0.00 | 0.07 | 0.05 | 30 | 1017.7 |
| 20260507205548 | 60 | 352 | 5.0 | 11.0 | 0.00 | 0.07 | 0.05 | 31 | 1017.5 |
| 20260507205045 | 60 | 32 | 2.0 | 11.0 | 0.00 | 0.07 | 0.05 | 31 | 1017.5 |
| 20260507204558 | 60 | 352 | 5.0 | 15.0 | 0.00 | 0.07 | 0.05 | 30 | 1017.7 |
| 20260507204048 | 60 | 330 | 7.0 | 17.0 | 0.00 | 0.07 | 0.05 | 31 | 1017.8 |
| 20260507203545 | 60 | 257 | 6.0 | 17.0 | 0.00 | 0.07 | 0.05 | 32 | 1018.0 |
| 20260507203103 | 59 | 317 | 5.0 | 16.0 | 0.00 | 0.07 | 0.05 | 30 | 1017.9 |
| 20260507202547 | 59 | 264 | 9.0 | 16.0 | 0.00 | 0.07 | 0.05 | 29 | 1018.2 |
| 20260507202048 | 58 | 216 | 2.0 | 8.0 | 0.00 | 0.07 | 0.05 | 31 | 1018.0 |
| 20260507201558 | 59 | 309 | 2.0 | 9.0 | 0.00 | 0.07 | 0.05 | 31 | 1018.3 |
| 20260507201050 | 57 | 30 | 3.0 | 9.0 | 0.00 | 0.07 | 0.05 | 32 | 1018.5 |
| 20260507200550 | 57 | 45 | 4.0 | 11.0 | 0.00 | 0.07 | 0.05 | 31 | 1018.5 |
| 20260507200105 | 57 | 338 | 4.0 | 11.0 | 0.00 | 0.07 | 0.05 | 31 | 1018.7 |
| 20260507195548 | 57 | 311 | 5.0 | 11.0 | 0.00 | 0.07 | 0.05 | 32 | 1018.6 |
| 20260507195049 | 57 | 329 | 4.0 | 17.0 | 0.00 | 0.07 | 0.05 | 32 | 1018.7 |
| 20260507194554 | 57 | 339 | 6.0 | 17.0 | 0.00 | 0.07 | 0.05 | 33 | 1018.8 |
| 20260507194044 | 57 | 290 | 6.0 | 15.0 | 0.00 | 0.07 | 0.05 | 32 | 1018.9 |
| 20260507193548 | 57 | 352 | 6.0 | 11.0 | 0.00 | 0.07 | 0.05 | 32 | 1018.8 |
| 20260507193058 | 57 | 55 | 4.0 | 10.0 | 0.00 | 0.07 | 0.05 | 32 | 1018.9 |
| 20260507192546 | 57 | 261 | 2.0 | 10.0 | 0.00 | 0.07 | 0.05 | 33 | 1019.1 |
| 20260507192044 | 57 | 138 | 3.0 | 9.0 | 0.00 | 0.07 | 0.05 | 33 | 1019.1 |
| 20260507191551 | 56 | 111 | 1.0 | 9.0 | 0.00 | 0.07 | 0.05 | 32 | 1019.1 |
| 20260507191049 | 56 | 5 | 2.0 | 10.0 | 0.00 | 0.07 | 0.05 | 32 | 1019.3 |
| 20260507190551 | 57 | 352 | 5.0 | 14.0 | 0.00 | 0.07 | 0.05 | 34 | 1019.2 |
| 20260507190058 | 57 | 252 | 7.0 | 14.0 | 0.00 | 0.07 | 0.05 | 33 | 1019.3 |
| 20260507185549 | 57 | 291 | 7.0 | 13.0 | 0.00 | 0.07 | 0.05 | 31 | 1019.4 |
| 20260507185048 | 58 | 72 | 3.0 | 10.0 | 0.00 | 0.07 | 0.05 | 33 | 1019.4 |
| 20260507184556 | 58 | 225 | 3.0 | 10.0 | 0.00 | 0.07 | 0.05 | 35 | 1019.4 |
| 20260507184048 | 58 | 39 | 4.0 | 10.0 | 0.00 | 0.07 | 0.05 | 31 | 1019.4 |
| 20260507183546 | 58 | 280 | 3.0 | 11.0 | 0.00 | 0.07 | 0.05 | 35 | 1019.5 |
| 20260507183051 | 57 | 21 | 3.0 | 14.0 | 0.00 | 0.07 | 0.05 | 34 | 1019.4 |
| 20260507182548 | 57 | 313 | 7.0 | 14.0 | 0.00 | 0.07 | 0.05 | 32 | 1019.5 |
| 20260507182051 | 57 | 311 | 3.0 | 8.0 | 0.00 | 0.07 | 0.05 | 33 | 1019.4 |
| 20260507181552 | 57 | 10 | 1.0 | 11.0 | 0.00 | 0.07 | 0.05 | 33 | 1019.3 |
| 20260507181048 | 56 | 0 | 1.0 | 11.0 | 0.00 | 0.07 | 0.05 | 35 | 1019.5 |
| 20260507180549 | 56 | 186 | 5.0 | 11.0 | 0.00 | 0.07 | 0.05 | 32 | 1019.4 |
| 20260507180052 | 56 | 194 | 2.0 | 9.0 | 0.00 | 0.07 | 0.05 | 31 | 1019.4 |
| 20260507175550 | 56 | 0 | 5.0 | 11.0 | 0.00 | 0.08 | 0.05 | 34 | 1019.3 |
| 20260507175048 | 56 | 283 | 6.0 | 13.0 | 0.00 | 0.08 | 0.05 | 34 | 1019.3 |
| 20260507174558 | 56 | 198 | 5.0 | 13.0 | 0.00 | 0.08 | 0.05 | 32 | 1019.3 |
| 20260507174049 | 56 | 169 | 7.0 | 13.0 | 0.00 | 0.08 | 0.05 | 32 | 1019.4 |
| 20260507173548 | 56 | 185 | 5.0 | 13.0 | 0.00 | 0.08 | 0.05 | 33 | 1019.7 |
| 20260507173051 | 56 | 254 | 6.0 | 13.0 | 0.00 | 0.08 | 0.05 | 32 | 1019.7 |
| 20260507172548 | 55 | 205 | 5.0 | 13.0 | 0.00 | 0.08 | 0.05 | 35 | 1019.8 |
| 20260507172048 | 55 | 194 | 5.0 | 14.0 | 0.00 | 0.08 | 0.05 | 35 | 1020.1 |
| 20260507171600 | 55 | 212 | 8.0 | 14.0 | 0.00 | 0.08 | 0.05 | 34 | 1020.1 |
| 20260507171045 | 55 | 213 | 8.0 | 15.0 | 0.00 | 0.08 | 0.05 | 35 | 1020.1 |
| 20260507170545 | 54 | 186 | 9.0 | 18.0 | 0.00 | 0.08 | 0.05 | 35 | 1020.1 |
| 20260507165544 | 54 | 271 | 9.0 | 17.0 | 0.00 | 0.08 | 0.05 | 38 | 1020.1 |
| 20260507165044 | 53 | 263 | 8.0 | 20.0 | 0.00 | 0.08 | 0.05 | 43 | 1020.1 |
| 20260507164601 | 53 | 243 | 10.0 | 21.0 | 0.00 | 0.08 | 0.05 | 40 | 1020.2 |
| 20260507164049 | 52 | 211 | 12.0 | 21.0 | 0.00 | 0.08 | 0.05 | 41 | 1020.2 |
| 20260507163545 | 51 | 207 | 10.0 | 19.0 | 0.00 | 0.08 | 0.05 | 43 | 1020.2 |
| 20260507163055 | 51 | 246 | 10.0 | 17.0 | 0.00 | 0.08 | 0.05 | 43 | 1020.3 |
| 20260507162548 | 51 | 208 | 7.0 | 16.0 | 0.00 | 0.08 | 0.05 | 44 | 1020.5 |
| 20260507162048 | 51 | 250 | 9.0 | 18.0 | 0.00 | 0.08 | 0.05 | 44 | 1020.7 |
| 20260507161555 | 51 | 229 | 8.0 | 18.0 | 0.00 | 0.08 | 0.05 | 43 | 1020.8 |
| 20260507161045 | 52 | 262 | 10.0 | 18.0 | 0.00 | 0.08 | 0.05 | 40 | 1020.8 |
| 20260507160549 | 52 | 265 | 6.0 | 16.0 | 0.00 | 0.08 | 0.05 | 45 | 1020.7 |
| 20260507160058 | 51 | 225 | 10.0 | 18.0 | 0.01 | 0.08 | 0.05 | 42 | 1020.6 |
| 20260507155547 | 51 | 238 | 10.0 | 18.0 | 0.01 | 0.08 | 0.05 | 43 | 1020.6 |
| 20260507155050 | 50 | 267 | 10.0 | 19.0 | 0.01 | 0.08 | 0.05 | 44 | 1020.6 |
| 20260507154559 | 49 | 231 | 8.0 | 21.0 | 0.01 | 0.08 | 0.05 | 45 | 1020.6 |
| 20260507154044 | 49 | 211 | 10.0 | 21.0 | 0.01 | 0.08 | 0.05 | 45 | 1020.7 |
| 20260507153545 | 49 | 238 | 9.0 | 26.0 | 0.01 | 0.08 | 0.05 | 45 | 1020.8 |
| 20260507153059 | 48 | 267 | 13.0 | 27.0 | 0.02 | 0.08 | 0.05 | 44 | 1020.9 |
| 20260507152545 | 48 | 248 | 12.0 | 28.0 | 0.02 | 0.08 | 0.05 | 44 | 1020.8 |
| 20260507152049 | 48 | 271 | 14.0 | 28.0 | 0.03 | 0.08 | 0.05 | 43 | 1020.6 |
| 20260507151552 | 47 | 234 | 14.0 | 25.0 | 0.03 | 0.08 | 0.05 | 43 | 1020.8 |
| 20260507151049 | 47 | 254 | 14.0 | 25.0 | 0.04 | 0.08 | 0.05 | 44 | 1020.7 |
| 20260507150549 | 47 | 272 | 13.0 | 21.0 | 0.04 | 0.08 | 0.05 | 45 | 1020.7 |
| 20260507150055 | 46 | 209 | 11.0 | 26.0 | 0.03 | 0.07 | 0.04 | 46 | 1020.8 |
| 20260507145548 | 46 | 235 | 13.0 | 26.0 | 0.03 | 0.07 | 0.04 | 45 | 1020.6 |
| 20260507145050 | 45 | 246 | 15.0 | 25.0 | 0.04 | 0.07 | 0.04 | 45 | 1020.6 |
| 20260507144553 | 45 | 257 | 14.0 | 26.0 | 0.04 | 0.07 | 0.04 | 46 | 1020.5 |
| 20260507144048 | 45 | 251 | 14.0 | 26.0 | 0.04 | 0.07 | 0.04 | 44 | 1020.5 |
| 20260507143548 | 45 | 255 | 13.0 | 25.0 | 0.04 | 0.07 | 0.04 | 43 | 1020.8 |
| 20260507143058 | 45 | 241 | 11.0 | 25.0 | 0.03 | 0.06 | 0.03 | 45 | 1020.7 |
| 20260507142548 | 44 | 257 | 12.0 | 25.0 | 0.03 | 0.06 | 0.03 | 45 | 1020.7 |
| 20260507142049 | 44 | 234 | 14.0 | 24.0 | 0.02 | 0.05 | 0.02 | 46 | 1020.6 |
| 20260507141555 | 44 | 238 | 14.0 | 24.0 | 0.02 | 0.05 | 0.02 | 45 | 1020.5 |
| 20260507141048 | 43 | 281 | 14.0 | 25.0 | 0.01 | 0.04 | 0.01 | 46 | 1020.5 |
| 20260507140549 | 43 | 271 | 15.0 | 28.0 | 0.01 | 0.04 | 0.01 | 46 | 1020.3 |
| 20260507140056 | 42 | 225 | 15.0 | 28.0 | 0.01 | 0.04 | 0.01 | 46 | 1020.6 |
| 20260507135548 | 42 | 253 | 16.0 | 28.0 | 0.01 | 0.04 | 0.01 | 46 | 1020.5 |
| 20260507135049 | 42 | 280 | 16.0 | 29.0 | 0.00 | 0.03 | 0.00 | 46 | 1020.5 |
| 20260507134554 | 41 | 249 | 17.0 | 29.0 | 0.00 | 0.03 | 0.00 | 46 | 1020.5 |
| 20260507134049 | 41 | 254 | 17.0 | 29.0 | 0.00 | 0.03 | 0.00 | 45 | 1020.1 |
| 20260507133548 | 41 | 265 | 15.0 | 30.0 | 0.00 | 0.03 | 0.00 | 46 | 1020.4 |
| 20260507133106 | 40 | 252 | 19.0 | 30.0 | 0.00 | 0.03 | 0.00 | 46 | 1020.1 |
| 20260507132547 | 41 | 175 | 14.0 | 26.0 | 0.00 | 0.03 | 0.00 | 45 | 1020.1 |
| 20260507132044 | 40 | 213 | 15.0 | 26.0 | 0.00 | 0.03 | 0.00 | 46 | 1020.2 |
| 20260507131553 | 40 | 252 | 17.0 | 26.0 | 0.00 | 0.03 | 0.00 | 44 | 1020.2 |
| 20260507131049 | 40 | 250 | 14.0 | 31.0 | 0.00 | 0.03 | 0.00 | 45 | 1020.2 |
| 20260507130544 | 39 | 244 | 12.0 | 31.0 | 0.00 | 0.03 | 0.00 | 46 | 1020.1 |
| 20260507130106 | 39 | 246 | 14.0 | 30.0 | 0.00 | 0.03 | 0.00 | 45 | 1019.9 |
| 20260507125548 | 39 | 214 | 19.0 | 30.0 | 0.00 | 0.03 | 0.00 | 45 | 1019.9 |
| 20260507125044 | 39 | 272 | 17.0 | 29.0 | 0.00 | 0.03 | 0.00 | 44 | 1019.8 |
| 20260507124551 | 39 | 242 | 16.0 | 29.0 | 0.00 | 0.03 | 0.00 | 44 | 1019.9 |
| 20260507124048 | 39 | 257 | 16.0 | 27.0 | 0.00 | 0.03 | 0.00 | 44 | 1019.8 |
| 20260507123548 | 39 | 228 | 15.0 | 30.0 | 0.00 | 0.03 | 0.00 | 44 | 1019.9 |
| 20260507123053 | 39 | 240 | 16.0 | 30.0 | 0.00 | 0.03 | 0.00 | 44 | 1019.8 |
| 20260507122548 | 39 | 221 | 15.0 | 27.0 | 0.00 | 0.03 | 0.00 | 44 | 1019.8 |
| 20260507122048 | 39 | 268 | 15.0 | 27.0 | 0.00 | 0.03 | 0.00 | 44 | 1019.8 |
| 20260507121606 | 38 | 244 | 12.0 | 24.0 | 0.00 | 0.03 | 0.00 | 46 | 1019.8 |
| 20260507121047 | 38 | 229 | 11.0 | 23.0 | 0.00 | 0.03 | 0.00 | 47 | 1019.8 |
| 20260507120547 | 37 | 235 | 13.0 | 23.0 | 0.00 | 0.03 | 0.00 | 48 | 1019.8 |
| 20260507120100 | 36 | 259 | 13.0 | 23.0 | 0.00 | 0.03 | 0.00 | 50 | 1019.8 |
| 20260507115545 | 36 | 236 | 14.0 | 22.0 | 0.00 | 0.03 | 0.00 | 51 | 1019.7 |
| 20260507115051 | 36 | 238 | 12.0 | 20.0 | 0.00 | 0.03 | 0.00 | 49 | 1019.6 |
| 20260507114633 | 36 | 246 | 11.0 | 20.0 | 0.00 | 0.03 | 0.00 | 49 | 1019.7 |
| 20260507114044 | 36 | 246 | 12.0 | 25.0 | 0.00 | 0.03 | 0.00 | 50 | 1019.7 |
| 20260507113548 | 36 | 215 | 11.0 | 25.0 | 0.00 | 0.03 | 0.00 | 49 | 1019.7 |
| 20260507113052 | 36 | 249 | 13.0 | 25.0 | 0.00 | 0.03 | 0.00 | 48 | 1019.9 |
| 20260507112549 | 36 | 239 | 13.0 | 23.0 | 0.00 | 0.03 | 0.00 | 49 | 1019.8 |
| 20260507112045 | 36 | 259 | 11.0 | 22.0 | 0.00 | 0.03 | 0.00 | 49 | 1020.0 |
| 20260507111555 | 36 | 275 | 10.0 | 22.0 | 0.00 | 0.03 | 0.00 | 48 | 1019.8 |
| 20260507111049 | 36 | 224 | 10.0 | 24.0 | 0.00 | 0.03 | 0.00 | 49 | 1019.8 |
| 20260507110548 | 36 | 273 | 12.0 | 24.0 | 0.00 | 0.03 | 0.00 | 48 | 1019.9 |
| 20260507110055 | 35 | 234 | 14.0 | 21.0 | 0.00 | 0.03 | 0.00 | 49 | 1020.0 |
| 20260507105547 | 35 | 227 | 13.0 | 23.0 | 0.00 | 0.03 | 0.00 | 49 | 1019.9 |
| 20260507105047 | 36 | 277 | 12.0 | 23.0 | 0.00 | 0.03 | 0.00 | 48 | 1019.9 |
| 20260507104551 | 36 | 247 | 11.0 | 23.0 | 0.00 | 0.03 | 0.00 | 46 | 1019.8 |
| 20260507104048 | 36 | 253 | 9.0 | 21.0 | 0.00 | 0.03 | 0.00 | 45 | 1019.7 |
| 20260507103548 | 36 | 258 | 11.0 | 21.0 | 0.00 | 0.03 | 0.00 | 46 | 1019.7 |
| 20260507103054 | 36 | 240 | 11.0 | 20.0 | 0.00 | 0.03 | 0.00 | 47 | 1019.7 |
| 20260507102547 | 36 | 275 | 12.0 | 23.0 | 0.00 | 0.03 | 0.00 | 46 | 1019.6 |
| 20260507102048 | 36 | 242 | 12.0 | 26.0 | 0.00 | 0.03 | 0.00 | 45 | 1019.8 |
| 20260507101603 | 36 | 242 | 15.0 | 27.0 | 0.00 | 0.03 | 0.00 | 45 | 1019.9 |
| 20260507101048 | 36 | 248 | 15.0 | 27.0 | 0.00 | 0.03 | 0.00 | 46 | 1019.9 |
| 20260507100549 | 36 | 263 | 16.0 | 27.0 | 0.00 | 0.03 | 0.00 | 46 | 1019.9 |
| 20260507100057 | 36 | 236 | 14.0 | 26.0 | 0.00 | 0.03 | 0.00 | 45 | 1020.0 |
| 20260507095548 | 36 | 250 | 13.0 | 24.0 | 0.00 | 0.03 | 0.00 | 45 | 1020.0 |
| 20260507095047 | 37 | 259 | 13.0 | 26.0 | 0.00 | 0.03 | 0.00 | 44 | 1019.9 |
| 20260507094552 | 37 | 288 | 16.0 | 26.0 | 0.00 | 0.03 | 0.00 | 42 | 1019.9 |
| 20260507094047 | 37 | 259 | 13.0 | 25.0 | 0.00 | 0.03 | 0.00 | 43 | 1019.8 |
| 20260507093547 | 37 | 268 | 14.0 | 25.0 | 0.00 | 0.03 | 0.00 | 43 | 1019.8 |
| 20260507093051 | 37 | 248 | 13.0 | 24.0 | 0.00 | 0.03 | 0.00 | 43 | 1019.9 |
| 20260507092548 | 36 | 253 | 14.0 | 24.0 | 0.00 | 0.03 | 0.00 | 45 | 1019.9 |
| 20260507092051 | 37 | 288 | 15.0 | 25.0 | 0.00 | 0.03 | 0.00 | 45 | 1019.9 |
| 20260507091555 | 37 | 290 | 14.0 | 25.0 | 0.00 | 0.03 | 0.00 | 44 | 1020.0 |
| 20260507091047 | 36 | 271 | 13.0 | 26.0 | 0.00 | 0.03 | 0.00 | 45 | 1020.0 |
| 20260507090548 | 36 | 242 | 14.0 | 26.0 | 0.00 | 0.03 | 0.00 | 45 | 1020.1 |
| 20260507090100 | 36 | 273 | 17.0 | 25.0 | 0.00 | 0.03 | 0.00 | 46 | 1020.1 |
| 20260507085548 | 36 | 258 | 14.0 | 28.0 | 0.00 | 0.03 | 0.00 | 46 | 1020.2 |
| 20260507085048 | 36 | 275 | 16.0 | 28.0 | 0.00 | 0.03 | 0.00 | 48 | 1020.1 |
| 20260507084558 | 36 | 277 | 17.0 | 29.0 | 0.00 | 0.03 | 0.00 | 47 | 1020.3 |
| 20260507084052 | 36 | 283 | 19.0 | 29.0 | 0.00 | 0.03 | 0.00 | 47 | 1020.3 |
| 20260507083548 | 36 | 284 | 14.0 | 26.0 | 0.00 | 0.03 | 0.00 | 47 | 1020.4 |
| 20260507083053 | 36 | 238 | 17.0 | 26.0 | 0.00 | 0.03 | 0.00 | 47 | 1020.2 |
| 20260507082547 | 36 | 263 | 15.0 | 26.0 | 0.00 | 0.03 | 0.00 | 47 | 1020.3 |
| 20260507082047 | 35 | 269 | 13.0 | 23.0 | 0.00 | 0.03 | 0.00 | 50 | 1020.4 |
| 20260507081553 | 35 | 305 | 12.0 | 27.0 | 0.00 | 0.03 | 0.00 | 51 | 1020.3 |
| 20260507081047 | 35 | 274 | 15.0 | 27.0 | 0.00 | 0.03 | 0.00 | 51 | 1020.4 |
| 20260507080731 | 35 | 298 | 14.0 | 27.0 | 0.00 | 0.03 | 0.00 | 53 | 1020.5 |
| 20260507080548 | 35 | 298 | 14.0 | 27.0 | 0.00 | 0.03 | 0.00 | 53 | 1020.5 |
| 20260507080120 | 34 | 275 | 14.0 | 27.0 | 0.00 | 0.03 | 0.00 | 54 | 1020.3 |
| 20260507075547 | 35 | 261 | 13.0 | 25.0 | 0.00 | 0.03 | 0.00 | 52 | 1020.4 |
| 20260507075047 | 35 | 260 | 15.0 | 27.0 | 0.00 | 0.03 | 0.00 | 52 | 1020.4 |
| 20260507074558 | 35 | 266 | 17.0 | 27.0 | 0.00 | 0.03 | 0.00 | 51 | 1020.4 |
| 20260507074122 | 35 | 261 | 13.0 | 21.0 | 0.00 | 0.03 | 0.00 | 52 | 1020.3 |
| 20260507073548 | 35 | 272 | 10.0 | 17.0 | 0.00 | 0.03 | 0.00 | 53 | 1020.5 |
| 20260507073104 | 35 | 309 | 10.0 | 17.0 | 0.00 | 0.03 | 0.00 | 52 | 1020.6 |
| 20260507072550 | 35 | 238 | 12.0 | 18.0 | 0.00 | 0.03 | 0.00 | 51 | 1020.7 |
| 20260507072047 | 34 | 269 | 11.0 | 18.0 | 0.00 | 0.03 | 0.00 | 55 | 1020.6 |
| 20260507071640 | 35 | 311 | 10.0 | 17.0 | 0.00 | 0.03 | 0.00 | 57 | 1020.6 |
| 20260507071047 | 35 | 277 | 11.0 | 16.0 | 0.00 | 0.03 | 0.00 | 56 | 1020.5 |
| 20260507070547 | 34 | 296 | 11.0 | 20.0 | 0.00 | 0.03 | 0.00 | 57 | 1020.5 |
| 20260507070055 | 34 | 281 | 11.0 | 20.0 | 0.00 | 0.03 | 0.00 | 58 | 1020.7 |
| 20260507065548 | 34 | 273 | 12.0 | 20.0 | 0.00 | 0.03 | 0.00 | 58 | 1020.6 |
| 20260507065047 | 34 | 284 | 9.0 | 18.0 | 0.00 | 0.03 | 0.00 | 62 | 1020.7 |
| 20260507064549 | 33 | 286 | 11.0 | 18.0 | 0.00 | 0.03 | 0.00 | 63 | 1020.7 |
| 20260507064048 | 33 | 295 | 10.0 | 16.0 | 0.00 | 0.03 | 0.00 | 64 | 1020.8 |
| 20260507063548 | 33 | 252 | 11.0 | 17.0 | 0.00 | 0.03 | 0.00 | 67 | 1021.0 |
| 20260507063056 | 33 | 294 | 11.0 | 18.0 | 0.00 | 0.03 | 0.00 | 69 | 1020.9 |
| 20260507062548 | 32 | 288 | 9.0 | 18.0 | 0.00 | 0.03 | 0.00 | 72 | 1020.9 |
| 20260507062048 | 31 | 288 | 8.0 | 17.0 | 0.00 | 0.03 | 0.00 | 76 | 1021.0 |
| 20260507061553 | 29 | 266 | 6.0 | 14.0 | 0.00 | 0.03 | 0.00 | 82 | 1020.9 |
| 20260507061047 | 28 | 251 | 3.0 | 9.0 | 0.00 | 0.03 | 0.00 | 86 | 1021.0 |
| 20260507060549 | 28 | 240 | 2.0 | 9.0 | 0.00 | 0.03 | 0.00 | 88 | 1020.8 |
| 20260507060053 | 27 | 0 | 1.0 | 9.0 | 0.00 | 0.03 | 0.00 | 89 | 1020.8 |
| 20260507055549 | 27 | 207 | 1.0 | 6.0 | 0.00 | 0.03 | 0.03 | 90 | 1020.8 |
| 20260507055048 | 26 | 0 | 1.0 | 4.0 | 0.00 | 0.03 | 0.03 | 90 | 1020.7 |
| 20260507054548 | 26 | 278 | 0.0 | 2.0 | 0.00 | 0.03 | 0.03 | 90 | 1020.7 |
| 20260507054047 | 26 | 0 | 0.0 | 2.0 | 0.00 | 0.03 | 0.03 | 89 | 1020.7 |
| 20260507053548 | 26 | 0 | 0.0 | 1.0 | 0.00 | 0.03 | 0.03 | 89 | 1020.7 |
| 20260507053050 | 26 | 0 | 0.0 | 3.0 | 0.00 | 0.03 | 0.03 | 89 | 1020.6 |
| 20260507052547 | 26 | 0 | 0.0 | 3.0 | 0.00 | 0.03 | 0.03 | 89 | 1020.5 |
| 20260507052047 | 26 | 316 | 0.0 | 3.0 | 0.00 | 0.03 | 0.03 | 89 | 1020.5 |
| 20260507051550 | 26 | 0 | 0.0 | 3.0 | 0.00 | 0.03 | 0.03 | 89 | 1020.5 |
| 20260507051048 | 26 | 314 | 0.0 | 3.0 | 0.00 | 0.03 | 0.03 | 89 | 1020.5 |
| 20260507050549 | 26 | 70 | 0.0 | 3.0 | 0.00 | 0.03 | 0.03 | 89 | 1020.4 |
| 20260507050054 | 26 | 0 | 0.0 | 0.0 | 0.00 | 0.03 | 0.03 | 89 | 1020.3 |
| 20260507045548 | 26 | 0 | 0.0 | 2.0 | 0.00 | 0.03 | 0.03 | 89 | 1020.4 |
| 20260507045048 | 26 | 0 | 0.0 | 3.0 | 0.00 | 0.03 | 0.03 | 89 | 1020.3 |
| 20260507044552 | 26 | 0 | 0.0 | 3.0 | 0.00 | 0.03 | 0.03 | 89 | 1020.5 |
| 20260507044047 | 26 | 290 | 1.0 | 3.0 | 0.00 | 0.03 | 0.03 | 88 | 1020.5 |
| 20260507043548 | 26 | 251 | 0.0 | 2.0 | 0.00 | 0.03 | 0.03 | 88 | 1020.5 |
| 20260507043051 | 26 | 0 | 0.0 | 0.0 | 0.00 | 0.03 | 0.03 | 88 | 1020.5 |
| 20260507042547 | 26 | 0 | 0.0 | 1.0 | 0.00 | 0.03 | 0.03 | 88 | 1020.5 |
| 20260507042047 | 26 | 0 | 0.0 | 4.0 | 0.00 | 0.03 | 0.03 | 87 | 1020.5 |
| 20260507041554 | 26 | 0 | 0.0 | 4.0 | 0.00 | 0.03 | 0.03 | 87 | 1020.5 |
| 20260507041052 | 27 | 0 | 0.0 | 0.0 | 0.00 | 0.03 | 0.03 | 87 | 1020.6 |
| 20260507040549 | 27 | 0 | 0.0 | 2.0 | 0.00 | 0.03 | 0.03 | 87 | 1020.6 |
| 20260507040057 | 27 | 0 | 0.0 | 2.0 | 0.00 | 0.03 | 0.03 | 87 | 1020.5 |
| 20260507035548 | 27 | 193 | 0.0 | 2.0 | 0.00 | 0.03 | 0.03 | 87 | 1020.5 |
| 20260507035049 | 27 | 0 | 0.0 | 2.0 | 0.00 | 0.03 | 0.03 | 87 | 1020.4 |
| 20260507034555 | 27 | 0 | 0.0 | 2.0 | 0.00 | 0.03 | 0.03 | 87 | 1020.4 |
| 20260507034048 | 27 | 0 | 0.0 | 2.0 | 0.00 | 0.03 | 0.03 | 87 | 1020.4 |
| 20260507033548 | 27 | 0 | 0.0 | 2.0 | 0.00 | 0.03 | 0.03 | 86 | 1020.5 |
| 20260507033052 | 27 | 0 | 0.0 | 0.0 | 0.00 | 0.03 | 0.03 | 86 | 1020.4 |
| 20260507032549 | 27 | 0 | 0.0 | 0.0 | 0.00 | 0.03 | 0.03 | 86 | 1020.4 |
| 20260507032046 | 27 | 0 | 0.0 | 0.0 | 0.00 | 0.03 | 0.03 | 85 | 1020.4 |
| 20260507031557 | 27 | 0 | 0.0 | 0.0 | 0.00 | 0.03 | 0.03 | 85 | 1020.3 |
| 20260507031048 | 28 | 0 | 0.0 | 0.0 | 0.00 | 0.03 | 0.03 | 85 | 1020.2 |
| 20260507030547 | 28 | 0 | 0.0 | 0.0 | 0.00 | 0.03 | 0.03 | 85 | 1020.3 |
| 20260507025545 | 28 | 0 | 0.0 | 0.0 | 0.00 | 0.03 | 0.03 | 84 | 1020.1 |
| 20260507025048 | 28 | 0 | 0.0 | 0.0 | 0.00 | 0.03 | 0.03 | 84 | 1020.1 |
| 20260507024608 | 28 | 0 | 0.0 | 0.0 | 0.00 | 0.03 | 0.03 | 84 | 1020.1 |
| 20260507024044 | 29 | 0 | 0.0 | 0.0 | 0.00 | 0.03 | 0.03 | 83 | 1020.1 |
| 20260507023548 | 29 | 0 | 0.0 | 0.0 | 0.00 | 0.03 | 0.03 | 83 | 1020.1 |
| 20260507023053 | 29 | 0 | 0.0 | 0.0 | 0.00 | 0.03 | 0.03 | 83 | 1020.0 |
| 20260507022546 | 29 | 0 | 0.0 | 0.0 | 0.00 | 0.03 | 0.03 | 83 | 1020.1 |
| 20260507022049 | 30 | 0 | 0.0 | 0.0 | 0.00 | 0.03 | 0.03 | 82 | 1020.1 |
| 20260507021559 | 30 | 0 | 0.0 | 0.0 | 0.00 | 0.03 | 0.03 | 82 | 1020.1 |
| 20260507021046 | 30 | 0 | 0.0 | 0.0 | 0.00 | 0.03 | 0.03 | 82 | 1020.1 |
| 20260507020547 | 30 | 0 | 0.0 | 0.0 | 0.00 | 0.03 | 0.03 | 82 | 1020.0 |
| 20260507020113 | 31 | 0 | 0.0 | 0.0 | 0.00 | 0.03 | 0.03 | 81 | 1019.9 |